| time (UTC) | temp F | wind direction | speed knots | gust knots | rain 1hr in | rain 24hr in | rain mn in | humidity % | barometer mb |
| 20260505193042 | 56 | 359 | 0.0 | 1.7 | 0.00 | 0.92 | 0.84 | 94 | 1012.9 |
| 20260505191538 | 56 | 136 | 0.0 | 3.5 | 0.00 | 0.92 | 0.84 | 94 | 1012.6 |
| 20260505190037 | 57 | 349 | 0.0 | 2.6 | 0.00 | 0.92 | 0.84 | 94 | 1012.5 |
| 20260505184537 | 57 | 39 | 0.0 | 0.9 | 0.00 | 1.01 | 0.84 | 93 | 1012.8 |
| 20260505183047 | 57 | 98 | 0.0 | 2.6 | 0.00 | 1.01 | 0.84 | 93 | 1012.9 |
| 20260505181535 | 58 | 88 | 0.9 | 3.5 | 0.00 | 1.01 | 0.84 | 92 | 1012.8 |
| 20260505180034 | 58 | 244 | 0.0 | 1.7 | 0.00 | 1.01 | 0.84 | 92 | 1012.5 |
| 20260505174535 | 58 | 132 | 0.0 | 2.6 | 0.00 | 1.06 | 0.84 | 91 | 1012.8 |
| 20260505173034 | 59 | 107 | 0.9 | 5.2 | 0.00 | 1.06 | 0.84 | 91 | 1012.8 |
| 20260505171533 | 60 | 219 | 0.9 | 2.6 | 0.00 | 1.06 | 0.84 | 89 | 1012.9 |
| 20260505170032 | 60 | 268 | 0.0 | 0.0 | 0.00 | 1.06 | 0.84 | 87 | 1012.8 |
| 20260505164550 | 61 | 141 | 0.0 | 0.0 | 0.00 | 1.08 | 0.84 | 86 | 1012.9 |
| 20260505163030 | 60 | 105 | 0.0 | 3.5 | 0.00 | 1.08 | 0.84 | 88 | 1012.8 |
| 20260505161535 | 60 | 127 | 0.0 | 4.3 | 0.00 | 1.08 | 0.84 | 88 | 1013.1 |
| 20260505153029 | 61 | 108 | 2.6 | 7.0 | 0.00 | 1.08 | 0.84 | 88 | 1013.0 |
| 20260505151527 | 61 | 116 | 1.7 | 7.0 | 0.00 | 1.08 | 0.84 | 87 | 1012.9 |
| 20260505124518 | 59 | 154 | 3.5 | 6.1 | 0.00 | 1.08 | 0.84 | 94 | 1013.5 |
| 20260505123012 | 59 | 49 | 0.0 | 0.9 | 0.00 | 1.08 | 0.84 | 95 | 1013.5 |
| 20260505121510 | 58 | 95 | 1.7 | 3.5 | 0.00 | 1.08 | 0.84 | 95 | 1013.3 |
| 20260505120009 | 58 | 97 | 2.6 | 5.2 | 0.00 | 1.08 | 0.84 | 95 | 1013.5 |
| 20260505114510 | 58 | 133 | 2.6 | 9.6 | 0.00 | 1.08 | 0.84 | 95 | 1013.5 |
| 20260505113009 | 58 | 146 | 2.6 | 5.2 | 0.00 | 1.08 | 0.84 | 95 | 1013.5 |
| 20260505111510 | 58 | 136 | 3.5 | 6.1 | 0.00 | 1.08 | 0.84 | 95 | 1013.5 |
| 20260505101502 | 57 | 82 | 0.9 | 2.6 | 0.01 | 1.08 | 0.84 | 95 | 1013.6 |
| 20260505094601 | 56 | 35 | 0.0 | 0.9 | 0.09 | 1.08 | 0.84 | 96 | 1013.9 |
| 20260505093106 | 56 | 97 | 0.0 | 2.6 | 0.13 | 1.07 | 0.83 | 96 | 1013.8 |
| 20260505091558 | 56 | 131 | 0.9 | 3.5 | 0.13 | 1.07 | 0.83 | 96 | 1013.5 |
| 20260505090058 | 55 | 92 | 0.9 | 1.7 | 0.13 | 1.07 | 0.83 | 96 | 1013.4 |
| 20260505084558 | 56 | 271 | 0.0 | 3.5 | 0.06 | 0.99 | 0.76 | 95 | 1013.5 |
| 20260505083103 | 57 | 100 | 3.5 | 6.1 | 0.01 | 0.94 | 0.71 | 94 | 1013.2 |
| 20260505081557 | 56 | 90 | 0.0 | 3.5 | 0.01 | 0.94 | 0.71 | 96 | 1013.2 |
| 20260505080111 | 57 | 286 | 0.0 | 2.6 | 0.00 | 0.94 | 0.70 | 96 | 1013.1 |
| 20260505074555 | 57 | 246 | 0.0 | 0.9 | 0.00 | 0.94 | 0.70 | 96 | 1013.1 |
| 20260505073100 | 56 | 82 | 0.0 | 1.7 | 0.00 | 0.94 | 0.70 | 96 | 1013.0 |
| 20260505071553 | 56 | 109 | 0.0 | 0.0 | 0.00 | 0.94 | 0.70 | 96 | 1013.0 |
| 20260505070054 | 56 | 101 | 0.0 | 1.7 | 0.00 | 0.94 | 0.70 | 96 | 1013.0 |
| 20260505064600 | 56 | 101 | 0.0 | 1.7 | 0.00 | 0.94 | 0.70 | 96 | 1012.8 |
| 20260505063100 | 56 | 81 | 0.9 | 3.5 | 0.01 | 0.94 | 0.70 | 96 | 1012.8 |
| 20260505061556 | 57 | 125 | 1.7 | 4.3 | 0.15 | 0.94 | 0.70 | 96 | 1012.5 |
| 20260505060051 | 56 | 3 | 0.9 | 2.6 | 0.15 | 0.94 | 0.70 | 96 | 1012.3 |
| 20260505054548 | 55 | 81 | 0.0 | 3.5 | 0.15 | 0.94 | 0.70 | 96 | 1012.2 |
| 20260505053109 | 55 | 25 | 0.9 | 2.6 | 0.14 | 0.93 | 0.69 | 95 | 1012.1 |
| 20260505051545 | 56 | 272 | 0.9 | 5.2 | 0.00 | 0.79 | 0.55 | 94 | 1012.2 |
| 20260505041545 | 56 | 57 | 0.0 | 3.5 | 0.00 | 0.79 | 0.55 | 92 | 1011.8 |
| 20260505040043 | 56 | 68 | 2.6 | 5.2 | 0.00 | 0.79 | 0.55 | 92 | 1011.7 |
| 20260505034552 | 55 | 292 | 0.9 | 3.5 | 0.00 | 0.79 | 0.55 | 93 | 1011.9 |
| 20260505033050 | 55 | 333 | 0.0 | 3.5 | 0.00 | 0.79 | 0.55 | 95 | 1011.9 |
| 20260505031541 | 55 | 262 | 0.9 | 1.7 | 0.00 | 0.79 | 0.55 | 94 | 1012.2 |
| 20260505030039 | 55 | 50 | 0.9 | 5.2 | 0.00 | 0.79 | 0.55 | 93 | 1012.1 |
| 20260505024537 | 56 | 60 | 0.9 | 2.6 | 0.01 | 0.79 | 0.55 | 92 | 1012.3 |
| 20260505023038 | 56 | 48 | 2.6 | 7.8 | 0.07 | 0.79 | 0.55 | 91 | 1012.3 |
| 20260505021533 | 54 | 39 | 1.7 | 6.1 | 0.20 | 0.79 | 0.55 | 95 | 1012.5 |
| 20260505020031 | 54 | 56 | 0.0 | 7.0 | 0.28 | 0.79 | 0.55 | 94 | 1013.0 |
| 20260505014530 | 54 | 17 | 0.0 | 1.7 | 0.31 | 0.78 | 0.54 | 96 | 1013.1 |
| 20260505013026 | 54 | 318 | 0.0 | 1.7 | 0.27 | 0.71 | 0.47 | 95 | 1013.5 |
| 20260505011544 | 54 | 338 | 0.0 | 4.3 | 0.18 | 0.57 | 0.35 | 94 | 1013.9 |
| 20260505010022 | 54 | 323 | 0.0 | 5.2 | 0.15 | 0.50 | 0.26 | 92 | 1013.8 |
| 20260505004522 | 55 | 29 | 0.0 | 5.2 | 0.14 | 0.46 | 0.23 | 92 | 1013.9 |
| 20260505003020 | 54 | 25 | 1.7 | 9.6 | 0.15 | 0.44 | 0.20 | 93 | 1013.9 |
| 20260505001518 | 54 | 28 | 2.6 | 5.2 | 0.14 | 0.40 | 0.17 | 94 | 1014.3 |
| 20260505000015 | 54 | 68 | 0.0 | 0.0 | 0.09 | 0.35 | 0.11 | 93 | 1014.6 |
| 20260504234514 | 55 | 56 | 1.7 | 4.3 | 0.09 | 0.32 | 0.09 | 92 | 1014.4 |
| 20260504233011 | 55 | 315 | 0.0 | 0.0 | 0.06 | 0.28 | 0.06 | 90 | 1014.7 |
| 20260504231509 | 56 | 72 | 0.9 | 4.3 | 0.02 | 0.26 | 0.02 | 87 | 1014.8 |
| 20260504230006 | 56 | 46 | 3.5 | 8.7 | 0.02 | 0.25 | 0.02 | 85 | 1014.8 |
| 20260504224510 | 57 | 89 | 0.0 | 8.7 | 0.00 | 0.24 | 0.00 | 83 | 1014.9 |
| 20260504223002 | 57 | 26 | 3.5 | 7.8 | 0.00 | 0.24 | 0.00 | 83 | 1015.0 |
| 20260504221558 | 56 | 41 | 2.6 | 9.6 | 0.00 | 0.24 | 0.00 | 85 | 1015.4 |
| 20260504220055 | 56 | 23 | 2.6 | 7.8 | 0.00 | 0.24 | 0.00 | 87 | 1015.6 |
| 20260504214600 | 56 | 56 | 2.6 | 6.1 | 0.01 | 0.24 | 0.24 | 89 | 1015.7 |
| 20260504213053 | 55 | 37 | 0.9 | 2.6 | 0.01 | 0.24 | 0.24 | 92 | 1016.3 |
| 20260504211550 | 55 | 48 | 0.0 | 1.7 | 0.02 | 0.24 | 0.24 | 92 | 1016.5 |
| 20260504210050 | 55 | 34 | 0.9 | 3.5 | 0.02 | 0.24 | 0.24 | 93 | 1016.6 |
| 20260504204548 | 55 | 84 | 1.7 | 4.3 | 0.02 | 0.23 | 0.23 | 94 | 1016.6 |
| 20260504203050 | 55 | 1 | 0.0 | 1.7 | 0.02 | 0.23 | 0.23 | 94 | 1016.9 |
| 20260504201546 | 55 | 282 | 0.0 | 1.7 | 0.04 | 0.21 | 0.21 | 94 | 1017.0 |
| 20260504200047 | 55 | 354 | 0.0 | 0.0 | 0.06 | 0.21 | 0.21 | 94 | 1016.7 |
| 20260504194551 | 55 | 21 | 0.0 | 5.2 | 0.06 | 0.21 | 0.21 | 94 | 1016.6 |